,,,PA_Meas_PMT16A,,PR_Meas_QMR101_102,,RH_Meas_QMH101,,SR_Meas_QMS101,,TA_Meas_QMH101,,GenWind,,GenWind,
date,time,status,PA,status,PR,status,RH,status,SR,status,TA,status,DirAvg,status,SpdAvg,
2008-04-15, 00:00:04,VALID,1003.59,VALID,0,VALID,95.8035,VALID,0.100563,VALID,23.3744,VALID,4,VALID,0,
2008-04-15, 00:01:04,VALID,1003.55,VALID,0,VALID,95.8187,VALID,0,VALID,23.3744,VALID,4,VALID,0,
2008-04-15, 00:02:04,VALID,1003.56,VALID,0,VALID,95.8035,VALID,0.100563,VALID,23.3532,VALID,4,VALID,0.0871094,
2008-04-15, 00:03:04,VALID,1003.53,VALID,0,VALID,95.7959,VALID,0,VALID,23.3532,VALID,4,VALID,0,
2008-04-15, 00:04:04,VALID,1003.51,VALID,0,VALID,95.8187,VALID,0.100563,VALID,23.3744,VALID,4,VALID,0,
2008-04-15, 00:05:04,VALID,1003.51,VALID,0,VALID,95.8264,VALID,0,VALID,23.355,VALID,4,VALID,0,
2008-04-15, 00:06:04,VALID,1003.5,VALID,0,VALID,95.8493,VALID,0,VALID,23.3337,VALID,4,VALID,0,
2008-04-15, 00:07:04,VALID,1003.5,VALID,0,VALID,95.9027,VALID,0.100563,VALID,23.3532,VALID,4,VALID,0,
2008-04-15, 00:08:04,VALID,1003.45,VALID,0,VALID,95.9332,VALID,0.100563,VALID,23.3744,VALID,30,VALID,0.157031,
2008-04-15, 00:09:04,VALID,1003.45,VALID,0,VALID,95.9637,VALID,0,VALID,23.3939,VALID,30,VALID,0.0984375,
2008-04-15, 00:10:04,VALID,1003.42,VALID,0,VALID,96.0018,VALID,0.100563,VALID,23.3939,VALID,30,VALID,0.221875,
2008-04-15, 00:11:04,VALID,1003.42,VALID,0,VALID,95.9942,VALID,0.100563,VALID,23.4134,VALID,30,VALID,0.337891,
2008-04-15, 00:12:04,VALID,1003.36,VALID,0,VALID,96.0171,VALID,0,VALID,23.4328,VALID,30,VALID,0.567578,
2008-04-15, 00:13:04,VALID,1003.36,VALID,0,VALID,96.0629,VALID,0,VALID,23.4523,VALID,30,VALID,0.510156,
2008-04-15, 00:14:04,VALID,1003.37,VALID,0,VALID,96.0629,VALID,0.100563,VALID,23.4523,VALID,30,VALID,0.573438,
2008-04-15, 00:15:04,VALID,1003.36,VALID,0,VALID,96.0552,VALID,0.100563,VALID,23.4311,VALID,30,VALID,0.447266,
2008-04-15, 00:16:04,VALID,1003.36,VALID,0,VALID,96.0705,VALID,0,VALID,23.4505,VALID,30,VALID,0.489453,
2008-04-15, 00:17:04,VALID,1003.35,VALID,0,VALID,96.04,VALID,0,VALID,23.4718,VALID,30,VALID,0.3,
2008-04-15, 00:18:04,VALID,1003.34,VALID,0,VALID,96.0095,VALID,0,VALID,23.4311,VALID,30,VALID,0.242578,
2008-04-15, 00:19:04,VALID,1003.3,VALID,0,VALID,95.9637,VALID,0.100563,VALID,23.4328,VALID,30,VALID,0.04375,
2008-04-15, 00:20:04,VALID,1003.25,VALID,0,VALID,95.9484,VALID,0,VALID,23.4328,VALID,30,VALID,0.00390625,
2008-04-15, 00:21:04,VALID,1003.25,VALID,0,VALID,95.9637,VALID,0.100563,VALID,23.4328,VALID,30,VALID,0,
2008-04-15, 00:22:04,VALID,1003.21,VALID,0,VALID,95.9637,VALID,0.100563,VALID,23.4134,VALID,30,VALID,0,
2008-04-15, 00:23:04,VALID,1003.18,VALID,0,VALID,96.0095,VALID,0.100563,VALID,23.4116,VALID,30,VALID,0,
2008-04-15, 00:24:04,VALID,1003.18,VALID,0,VALID,95.9713,VALID,0,VALID,23.4134,VALID,30,VALID,0,
2008-04-15, 00:25:04,VALID,1003.15,VALID,0,VALID,95.9179,VALID,0.100563,VALID,23.3921,VALID,30,VALID,0.0683594,
2008-04-15, 00:26:04,VALID,1003.16,VALID,0,VALID,95.8721,VALID,0.100563,VALID,23.3727,VALID,30,VALID,0.303906,
2008-04-15, 00:27:04,VALID,1003.15,VALID,0,VALID,95.895,VALID,0.100563,VALID,23.3744,VALID,30,VALID,0.292969,
2008-04-15, 00:28:04,VALID,1003.11,VALID,0,VALID,95.9027,VALID,0.100563,VALID,23.3744,VALID,30,VALID,0.260156,
2008-04-15, 00:29:04,VALID,1003.12,VALID,0,VALID,95.9179,VALID,0,VALID,23.3744,VALID,30,VALID,0.466797,
2008-04-15, 00:30:04,VALID,1003.11,VALID,0,VALID,95.9179,VALID,0,VALID,23.3337,VALID,30,VALID,0.447266,
2008-04-15, 00:31:04,VALID,1003.1,VALID,0,VALID,96.0095,VALID,0.100563,VALID,23.3744,VALID,30,VALID,0.53125,
2008-04-15, 00:32:04,VALID,1003.11,VALID,0,VALID,95.9637,VALID,0.100563,VALID,23.3532,VALID,30,VALID,0.508984,
2008-04-15, 00:33:04,VALID,1003.07,VALID,0,VALID,95.9561,VALID,0.100563,VALID,23.355,VALID,30,VALID,0.537891,
2008-04-15, 00:34:04,VALID,1003.06,VALID,0,VALID,95.9866,VALID,0.100563,VALID,23.355,VALID,30,VALID,0.447266,
2008-04-15, 00:35:04,VALID,1003.08,VALID,0,VALID,95.9942,VALID,0,VALID,23.3337,VALID,30,VALID,0.346094,
2008-04-15, 00:36:04,VALID,1003.05,VALID,0,VALID,96.0705,VALID,0.100563,VALID,23.355,VALID,30,VALID,0.431641,
2008-04-15, 00:37:04,VALID,1003.04,VALID,0,VALID,96.0857,VALID,0.100563,VALID,23.3532,VALID,30,VALID,0.430469,
2008-04-15, 00:38:04,VALID,1003.02,VALID,0,VALID,96.101,VALID,0,VALID,23.3744,VALID,30,VALID,0.390625,
2008-04-15, 00:39:04,VALID,1003.03,VALID,0,VALID,96.1315,VALID,0,VALID,23.3939,VALID,30,VALID,0.282813,
2008-04-15, 00:40:04,VALID,1002.99,VALID,0,VALID,96.1392,VALID,0,VALID,23.3939,VALID,30,VALID,0.234375,
2008-04-15, 00:41:04,VALID,1002.99,VALID,0,VALID,96.162,VALID,0,VALID,23.3939,VALID,30,VALID,0.244531,
2008-04-15, 00:42:04,VALID,1002.97,VALID,0,VALID,96.2002,VALID,0,VALID,23.4346,VALID,30,VALID,0.0820313,
2008-04-15, 00:43:04,VALID,1002.94,VALID,0,VALID,96.2231,VALID,0,VALID,23.4328,VALID,30,VALID,0.141797,
2008-04-15, 00:44:04,VALID,1002.95,VALID,0,VALID,96.2078,VALID,0,VALID,23.4328,VALID,30,VALID,0.224609,
2008-04-15, 00:45:04,VALID,1002.94,VALID,0,VALID,96.162,VALID,0,VALID,23.4541,VALID,30,VALID,0.221484,
2008-04-15, 00:46:04,VALID,1002.98,VALID,0,VALID,96.1315,VALID,0,VALID,23.4328,VALID,30,VALID,0.360156,
2008-04-15, 00:47:04,VALID,1002.98,VALID,0,VALID,96.1392,VALID,0,VALID,23.4541,VALID,30,VALID,0.416016,
2008-04-15, 00:48:04,VALID,1002.99,VALID,0,VALID,96.1697,VALID,0,VALID,23.4328,VALID,30,VALID,0.430078,
2008-04-15, 00:49:04,VALID,1002.97,VALID,0,VALID,96.1926,VALID,0,VALID,23.4328,VALID,29,VALID,0.421094,
2008-04-15, 00:50:04,VALID,1002.98,VALID,0,VALID,96.1697,VALID,0,VALID,23.4328,VALID,29,VALID,0.284375,
2008-04-15, 00:51:04,VALID,1002.97,VALID,0,VALID,96.1926,VALID,0,VALID,23.4328,VALID,29,VALID,0.178125,
2008-04-15, 00:52:04,VALID,1002.91,VALID,0,VALID,96.246,VALID,0.100563,VALID,23.4523,VALID,29,VALID,0.364062,
2008-04-15, 00:53:04,VALID,1002.93,VALID,0,VALID,96.2612,VALID,0.100563,VALID,23.4718,VALID,29,VALID,0.21875,
2008-04-15, 00:54:04,VALID,1002.88,VALID,0,VALID,96.2383,VALID,0,VALID,23.4912,VALID,29,VALID,0.226953,
2008-04-15, 00:55:04,VALID,1002.85,VALID,0,VALID,96.246,VALID,0.100563,VALID,23.4718,VALID,29,VALID,0.253516,
2008-04-15, 00:56:04,VALID,1002.84,VALID,0,VALID,96.2307,VALID,0,VALID,23.4912,VALID,29,VALID,0.235547,
2008-04-15, 00:57:04,VALID,1002.84,VALID,0,VALID,96.2612,VALID,0,VALID,23.4912,VALID,29,VALID,0.224609,
2008-04-15, 00:58:04,VALID,1002.81,VALID,0,VALID,96.2688,VALID,0,VALID,23.4912,VALID,29,VALID,0.279297,
2008-04-15, 00:59:04,VALID,1002.81,VALID,0,VALID,96.2536,VALID,0,VALID,23.5107,VALID,29,VALID,0,
2008-04-15, 01:00:04,VALID,1002.8,VALID,0,VALID,96.307,VALID,0,VALID,23.5107,VALID,29,VALID,0,
2008-04-15, 01:01:04,VALID,1002.8,VALID,0,VALID,96.2765,VALID,0,VALID,23.5302,VALID,29,VALID,0,
2008-04-15, 01:02:04,VALID,1002.77,VALID,0,VALID,96.2612,VALID,0,VALID,23.5302,VALID,29,VALID,0,
2008-04-15, 01:03:04,VALID,1002.76,VALID,0,VALID,96.2307,VALID,0,VALID,23.5302,VALID,29,VALID,0.31875,
2008-04-15, 01:04:04,VALID,1002.76,VALID,0,VALID,96.2307,VALID,0.100563,VALID,23.5302,VALID,29,VALID,0.00234375,
2008-04-15, 01:05:04,VALID,1002.75,VALID,0,VALID,96.2078,VALID,0,VALID,23.5302,VALID,29,VALID,0.308984,
2008-04-15, 01:06:04,VALID,1002.72,VALID,0,VALID,96.2002,VALID,0,VALID,23.5107,VALID,29,VALID,0.399219,
2008-04-15, 01:07:04,VALID,1002.7,VALID,0,VALID,96.2078,VALID,0,VALID,23.4912,VALID,29,VALID,0.436719,
2008-04-15, 01:08:04,VALID,1002.71,VALID,0,VALID,96.2078,VALID,0,VALID,23.4912,VALID,29,VALID,0.410937,
2008-04-15, 01:09:04,VALID,1002.69,VALID,0,VALID,96.2154,VALID,0,VALID,23.4912,VALID,29,VALID,0.438672,
2008-04-15, 01:10:04,VALID,1002.69,VALID,0,VALID,96.2231,VALID,0,VALID,23.4718,VALID,29,VALID,0.409375,
2008-04-15, 01:11:04,VALID,1002.66,VALID,0,VALID,96.2383,VALID,0,VALID,23.493,VALID,29,VALID,0.432031,
2008-04-15, 01:12:04,VALID,1002.65,VALID,0,VALID,96.2536,VALID,0,VALID,23.4718,VALID,29,VALID,0.303516,
2008-04-15, 01:13:04,VALID,1002.64,VALID,0,VALID,96.2612,VALID,0,VALID,23.4912,VALID,29,VALID,0.262109,
2008-04-15, 01:14:04,VALID,1002.6,VALID,0,VALID,96.246,VALID,0,VALID,23.4912,VALID,29,VALID,0.133594,
2008-04-15, 01:15:04,VALID,1002.63,VALID,0,VALID,96.2612,VALID,0,VALID,23.4912,VALID,29,VALID,0,
2008-04-15, 01:16:04,VALID,1002.59,VALID,0,VALID,96.2536,VALID,0,VALID,23.4912,VALID,29,VALID,0,
2008-04-15, 01:17:04,VALID,1002.61,VALID,0,VALID,96.2765,VALID,0,VALID,23.4912,VALID,29,VALID,0,
2008-04-15, 01:18:04,VALID,1002.58,VALID,0,VALID,96.2841,VALID,0,VALID,23.5125,VALID,29,VALID,0,
2008-04-15, 01:19:04,VALID,1002.59,VALID,0,VALID,96.2994,VALID,0,VALID,23.5107,VALID,29,VALID,0,
2008-04-15, 01:20:04,VALID,1002.55,VALID,0,VALID,96.307,VALID,0,VALID,23.5107,VALID,29,VALID,0,
2008-04-15, 01:21:04,VALID,1002.51,VALID,0,VALID,96.3222,VALID,0.100563,VALID,23.5107,VALID,29,VALID,0,
2008-04-15, 01:22:04,VALID,1002.52,VALID,0,VALID,96.3985,VALID,0,VALID,23.5302,VALID,29,VALID,0,
2008-04-15, 01:23:04,VALID,1002.51,VALID,0,VALID,96.4367,VALID,0,VALID,23.5903,VALID,29,VALID,0,
2008-04-15, 01:24:04,VALID,1002.5,VALID,0,VALID,96.4443,VALID,0,VALID,23.608,VALID,29,VALID,0,
2008-04-15, 01:25:04,VALID,1002.46,VALID,0,VALID,96.4062,VALID,0,VALID,23.6275,VALID,29,VALID,0,
2008-04-15, 01:26:04,VALID,1002.44,VALID,0,VALID,96.3909,VALID,0,VALID,23.6275,VALID,29,VALID,0,
2008-04-15, 01:27:04,VALID,1002.46,VALID,0,VALID,96.3528,VALID,0,VALID,23.6469,VALID,29,VALID,0,
2008-04-15, 01:28:04,VALID,1002.46,VALID,0,VALID,96.2841,VALID,0,VALID,23.608,VALID,29,VALID,0,
2008-04-15, 01:29:04,VALID,1002.42,VALID,0,VALID,96.2536,VALID,0,VALID,23.5885,VALID,28,VALID,0.396094,
2008-04-15, 01:30:04,VALID,1002.41,VALID,0,VALID,96.2383,VALID,0,VALID,23.5885,VALID,20,VALID,0.629687,
2008-04-15, 01:31:04,VALID,1002.41,VALID,0,VALID,96.2383,VALID,0,VALID,23.5691,VALID,13,VALID,0.575,
2008-04-15, 01:32:04,VALID,1002.39,VALID,0,VALID,96.2002,VALID,0,VALID,23.5496,VALID,12,VALID,0.551172,
2008-04-15, 01:33:04,VALID,1002.42,VALID,0,VALID,96.246,VALID,0,VALID,23.5709,VALID,354,VALID,0.598047,
2008-04-15, 01:34:04,VALID,1002.39,VALID,0,VALID,96.307,VALID,0,VALID,23.5496,VALID,356,VALID,0.659375,
2008-04-15, 01:35:04,VALID,1002.41,VALID,0,VALID,96.307,VALID,0,VALID,23.5691,VALID,346,VALID,0.711719,
2008-04-15, 01:36:04,VALID,1002.39,VALID,0,VALID,96.3375,VALID,0.100563,VALID,23.5885,VALID,352,VALID,0.647266,
2008-04-15, 01:37:04,VALID,1002.36,VALID,0,VALID,96.3146,VALID,0,VALID,23.5885,VALID,353,VALID,0.579297,
2008-04-15, 01:38:04,VALID,1002.37,VALID,0,VALID,96.3222,VALID,0.100563,VALID,23.5673,VALID,344,VALID,0.648047,
2008-04-15, 01:39:04,VALID,1002.34,VALID,0,VALID,96.3299,VALID,0,VALID,23.608,VALID,348,VALID,0.548047,
2008-04-15, 01:40:04,VALID,1002.32,VALID,0,VALID,96.3146,VALID,0,VALID,23.608,VALID,348,VALID,0.282031,
2008-04-15, 01:41:04,VALID,1002.3,VALID,0,VALID,96.2994,VALID,0,VALID,23.608,VALID,348,VALID,0.277344,
2008-04-15, 01:42:04,VALID,1002.3,VALID,0,VALID,96.2612,VALID,0,VALID,23.5673,VALID,348,VALID,0.323828,
2008-04-15, 01:43:04,VALID,1002.23,VALID,0,VALID,96.2536,VALID,0.100563,VALID,23.5885,VALID,348,VALID,0.289844,
2008-04-15, 01:44:04,VALID,1002.23,VALID,0,VALID,96.2612,VALID,0.100563,VALID,23.5885,VALID,348,VALID,0.195703,
2008-04-15, 01:45:04,VALID,1002.2,VALID,0,VALID,96.2688,VALID,0.100563,VALID,23.5885,VALID,348,VALID,0.160938,
2008-04-15, 01:46:04,VALID,1002.2,VALID,0,VALID,96.2688,VALID,0.100563,VALID,23.608,VALID,348,VALID,0.292188,
2008-04-15, 01:47:04,VALID,1002.18,VALID,0,VALID,96.2688,VALID,0,VALID,23.5868,VALID,348,VALID,0.169922,
2008-04-15, 01:48:04,VALID,1002.19,VALID,0,VALID,96.2383,VALID,0.100563,VALID,23.5885,VALID,348,VALID,0.0578125,
2008-04-15, 01:49:04,VALID,1002.21,VALID,0,VALID,96.2307,VALID,0,VALID,23.5673,VALID,348,VALID,0.451953,
2008-04-15, 01:50:04,VALID,1002.22,VALID,0,VALID,96.2383,VALID,0.100563,VALID,23.5885,VALID,349,VALID,0.491406,
2008-04-15, 01:51:04,VALID,1002.25,VALID,0,VALID,96.246,VALID,0.100563,VALID,23.5673,VALID,349,VALID,0.463281,
2008-04-15, 01:52:04,VALID,1002.21,VALID,0,VALID,96.2383,VALID,0.100563,VALID,23.5885,VALID,349,VALID,0.337891,
2008-04-15, 01:53:04,VALID,1002.24,VALID,0,VALID,96.2154,VALID,0,VALID,23.5496,VALID,349,VALID,0.421094,
2008-04-15, 01:54:04,VALID,1002.27,VALID,0,VALID,96.2231,VALID,0,VALID,23.5496,VALID,350,VALID,0.491406,
2008-04-15, 01:55:04,VALID,1002.28,VALID,0,VALID,96.2231,VALID,0,VALID,23.5709,VALID,350,VALID,0.494531,
2008-04-15, 01:56:04,VALID,1002.28,VALID,0,VALID,96.2154,VALID,0,VALID,23.5514,VALID,350,VALID,0.480469,
2008-04-15, 01:57:04,VALID,1002.3,VALID,0,VALID,96.2002,VALID,0,VALID,23.5514,VALID,350,VALID,0.476953,
2008-04-15, 01:58:04,VALID,1002.28,VALID,0,VALID,96.2383,VALID,0,VALID,23.5514,VALID,350,VALID,0.404297,
2008-04-15, 01:59:04,VALID,1002.27,VALID,0,VALID,96.2307,VALID,0,VALID,23.5532,VALID,350,VALID,0.444141,
2008-04-15, 02:00:04,VALID,1002.28,VALID,0,VALID,96.2307,VALID,0,VALID,23.5319,VALID,350,VALID,0.500391,
2008-04-15, 02:01:04,VALID,1002.28,VALID,0,VALID,96.2383,VALID,0,VALID,23.5319,VALID,350,VALID,0.494922,
2008-04-15, 02:02:04,VALID,1002.28,VALID,0,VALID,96.2688,VALID,0,VALID,23.5319,VALID,350,VALID,0.435937,
2008-04-15, 02:03:04,VALID,1002.27,VALID,0,VALID,96.246,VALID,0,VALID,23.5319,VALID,350,VALID,0.440234,
2008-04-15, 02:04:04,VALID,1002.27,VALID,0,VALID,96.2536,VALID,0,VALID,23.5319,VALID,350,VALID,0.497656,
2008-04-15, 02:05:04,VALID,1002.27,VALID,0,VALID,96.2688,VALID,0,VALID,23.5319,VALID,350,VALID,0.408203,
2008-04-15, 02:06:04,VALID,1002.26,VALID,0,VALID,96.3375,VALID,0,VALID,23.5107,VALID,350,VALID,0.340625,
2008-04-15, 02:07:04,VALID,1002.26,VALID,0,VALID,96.3604,VALID,0,VALID,23.5302,VALID,350,VALID,0.428906,
2008-04-15, 02:08:04,VALID,1002.23,VALID,0,VALID,96.3222,VALID,0,VALID,23.5691,VALID,350,VALID,0.429297,
2008-04-15, 02:09:04,VALID,1002.23,VALID,0,VALID,96.2841,VALID,0,VALID,23.5302,VALID,350,VALID,0.348047,
2008-04-15, 02:10:04,VALID,1002.21,VALID,0,VALID,96.2841,VALID,0,VALID,23.5691,VALID,350,VALID,0.347266,
2008-04-15, 02:11:04,VALID,1002.17,VALID,0,VALID,96.2765,VALID,0,VALID,23.5496,VALID,350,VALID,0.375391,
2008-04-15, 02:12:04,VALID,1002.17,VALID,0,VALID,96.2994,VALID,0.100563,VALID,23.5496,VALID,350,VALID,0.492969,
2008-04-15, 02:13:04,VALID,1002.14,VALID,0,VALID,96.2994,VALID,0,VALID,23.5691,VALID,350,VALID,0.423438,
2008-04-15, 02:14:04,VALID,1002.15,VALID,0,VALID,96.307,VALID,0,VALID,23.5496,VALID,350,VALID,0.522266,
2008-04-15, 02:15:04,VALID,1002.15,VALID,0,VALID,96.3222,VALID,0,VALID,23.5691,VALID,350,VALID,0.540234,
2008-04-15, 02:16:04,VALID,1002.15,VALID,0,VALID,96.2917,VALID,0,VALID,23.5691,VALID,350,VALID,0.592188,
2008-04-15, 02:17:04,VALID,1002.18,VALID,0,VALID,96.3299,VALID,0,VALID,23.5691,VALID,350,VALID,0.644531,
2008-04-15, 02:18:04,VALID,1002.19,VALID,0,VALID,96.307,VALID,0.100563,VALID,23.5691,VALID,350,VALID,0.529688,
2008-04-15, 02:19:04,VALID,1002.21,VALID,0,VALID,96.307,VALID,0,VALID,23.5478,VALID,351,VALID,0.426953,
2008-04-15, 02:20:04,VALID,1002.19,VALID,0,VALID,96.3528,VALID,0,VALID,23.5691,VALID,351,VALID,0.432813,
2008-04-15, 02:21:04,VALID,1002.2,VALID,0,VALID,96.3375,VALID,0.100563,VALID,23.5885,VALID,351,VALID,0.462109,
2008-04-15, 02:22:04,VALID,1002.19,VALID,0,VALID,96.3451,VALID,0.100563,VALID,23.5885,VALID,351,VALID,0.409766,
2008-04-15, 02:23:04,VALID,1002.17,VALID,0,VALID,96.3451,VALID,0,VALID,23.5885,VALID,351,VALID,0.411328,
2008-04-15, 02:24:04,VALID,1002.15,VALID,0,VALID,96.3222,VALID,0.100563,VALID,23.5673,VALID,351,VALID,0.466797,
2008-04-15, 02:25:04,VALID,1002.15,VALID,0,VALID,96.3146,VALID,0.100563,VALID,23.608,VALID,351,VALID,0.357422,
2008-04-15, 02:26:04,VALID,1002.12,VALID,0,VALID,96.3222,VALID,0,VALID,23.5885,VALID,351,VALID,0.390625,
2008-04-15, 02:27:04,VALID,1002.12,VALID,0,VALID,96.3222,VALID,0,VALID,23.5691,VALID,351,VALID,0.433594,
2008-04-15, 02:28:04,VALID,1002.12,VALID,0,VALID,96.3299,VALID,0,VALID,23.5885,VALID,351,VALID,0.361719,
2008-04-15, 02:29:04,VALID,1002.12,VALID,0,VALID,96.3146,VALID,0,VALID,23.5691,VALID,351,VALID,0.416406,
2008-04-15, 02:30:04,VALID,1002.09,VALID,0,VALID,96.307,VALID,0,VALID,23.5691,VALID,351,VALID,0.463672,
2008-04-15, 02:31:04,VALID,1002.1,VALID,0,VALID,96.307,VALID,0,VALID,23.5691,VALID,351,VALID,0.435547,
2008-04-15, 02:32:04,VALID,1002.11,VALID,0,VALID,96.3299,VALID,0.100563,VALID,23.5691,VALID,351,VALID,0.448828,
2008-04-15, 02:33:04,VALID,1002.11,VALID,0,VALID,96.3299,VALID,0,VALID,23.5691,VALID,351,VALID,0.5125,
2008-04-15, 02:34:04,VALID,1002.13,VALID,0,VALID,96.3146,VALID,0,VALID,23.5709,VALID,351,VALID,0.435156,
2008-04-15, 02:35:04,VALID,1002.11,VALID,0,VALID,96.307,VALID,0,VALID,23.5691,VALID,351,VALID,0.344922,
2008-04-15, 02:36:04,VALID,1002.1,VALID,0,VALID,96.3451,VALID,0,VALID,23.5478,VALID,351,VALID,0.317969,
2008-04-15, 02:37:04,VALID,1002.09,VALID,0,VALID,96.3375,VALID,0,VALID,23.5496,VALID,351,VALID,0.203516,
2008-04-15, 02:38:04,VALID,1002.09,VALID,0,VALID,96.3451,VALID,0,VALID,23.5903,VALID,351,VALID,0.220703,
2008-04-15, 02:39:04,VALID,1002.06,VALID,0,VALID,96.3222,VALID,0,VALID,23.5691,VALID,351,VALID,0.00195313,
2008-04-15, 02:40:04,VALID,1002.04,VALID,0,VALID,96.3451,VALID,0.100563,VALID,23.5691,VALID,351,VALID,0,
2008-04-15, 02:41:04,VALID,1002.03,VALID,0,VALID,96.3451,VALID,0.100563,VALID,23.5478,VALID,351,VALID,0,
2008-04-15, 02:42:04,VALID,1002.03,VALID,0,VALID,96.3528,VALID,0,VALID,23.5691,VALID,351,VALID,0.129297,
2008-04-15, 02:43:04,VALID,1001.99,VALID,0,VALID,96.3375,VALID,0.100563,VALID,23.5691,VALID,351,VALID,0.313281,
2008-04-15, 02:44:04,VALID,1002.01,VALID,0,VALID,96.3756,VALID,0.100563,VALID,23.5691,VALID,351,VALID,0.365625,
2008-04-15, 02:45:04,VALID,1002.03,VALID,0,VALID,96.3833,VALID,0,VALID,23.5691,VALID,352,VALID,0.477344,
2008-04-15, 02:46:04,VALID,1002.03,VALID,0,VALID,96.3985,VALID,0,VALID,23.5885,VALID,352,VALID,0.497266,
2008-04-15, 02:47:04,VALID,1002,VALID,0,VALID,96.4214,VALID,0.100563,VALID,23.5885,VALID,352,VALID,0.490234,
2008-04-15, 02:48:04,VALID,1002.01,VALID,0,VALID,96.4138,VALID,0,VALID,23.5885,VALID,352,VALID,0.578516,
2008-04-15, 02:49:04,VALID,1002,VALID,0,VALID,96.3833,VALID,0.100563,VALID,23.608,VALID,352,VALID,0.387109,
2008-04-15, 02:50:04,VALID,1001.97,VALID,0,VALID,96.368,VALID,0,VALID,23.608,VALID,352,VALID,0.24375,
2008-04-15, 02:51:04,VALID,1001.93,VALID,0,VALID,96.3756,VALID,0,VALID,23.6293,VALID,352,VALID,0.19375,
2008-04-15, 02:52:04,VALID,1001.93,VALID,0,VALID,96.3604,VALID,0.100563,VALID,23.5673,VALID,352,VALID,0.292969,
2008-04-15, 02:53:04,VALID,1001.96,VALID,0,VALID,96.3528,VALID,0,VALID,23.5691,VALID,352,VALID,0.270312,
2008-04-15, 02:54:04,VALID,1001.93,VALID,0,VALID,96.3451,VALID,0,VALID,23.5885,VALID,352,VALID,0.343359,
2008-04-15, 02:55:04,VALID,1001.96,VALID,0,VALID,96.3604,VALID,0,VALID,23.5478,VALID,352,VALID,0.38125,
2008-04-15, 02:56:04,VALID,1001.99,VALID,0,VALID,96.3756,VALID,0.100563,VALID,23.5691,VALID,352,VALID,0.469922,
2008-04-15, 02:57:04,VALID,1001.95,VALID,0,VALID,96.3756,VALID,0.100563,VALID,23.5691,VALID,352,VALID,0.424609,
2008-04-15, 02:58:04,VALID,1001.93,VALID,0,VALID,96.3833,VALID,0.100563,VALID,23.5691,VALID,352,VALID,0.423438,
2008-04-15, 02:59:04,VALID,1001.93,VALID,0,VALID,96.3909,VALID,0,VALID,23.5691,VALID,352,VALID,0.414844,
2008-04-15, 03:00:04,VALID,1001.94,VALID,0,VALID,96.368,VALID,0,VALID,23.5496,VALID,352,VALID,0.456641,
2008-04-15, 03:01:04,VALID,1001.9,VALID,0,VALID,96.3756,VALID,0,VALID,23.5691,VALID,352,VALID,0.384375,
2008-04-15, 03:02:04,VALID,1001.87,VALID,0,VALID,96.3833,VALID,0.100563,VALID,23.5496,VALID,352,VALID,0.444922,
2008-04-15, 03:03:04,VALID,1001.85,VALID,0,VALID,96.368,VALID,0,VALID,23.5496,VALID,352,VALID,0.451953,
2008-04-15, 03:04:04,VALID,1001.84,VALID,0,VALID,96.3909,VALID,0.100563,VALID,23.5691,VALID,352,VALID,0.546094,
2008-04-15, 03:05:04,VALID,1001.83,VALID,0,VALID,96.4062,VALID,0.100563,VALID,23.5478,VALID,352,VALID,0.546875,
2008-04-15, 03:06:04,VALID,1001.82,VALID,0,VALID,96.429,VALID,0.100563,VALID,23.5673,VALID,352,VALID,0.548437,
2008-04-15, 03:07:04,VALID,1001.83,VALID,0,VALID,96.429,VALID,0.100563,VALID,23.5885,VALID,352,VALID,0.475781,
2008-04-15, 03:08:04,VALID,1001.77,VALID,0,VALID,96.429,VALID,0.100563,VALID,23.5885,VALID,352,VALID,0.523047,
2008-04-15, 03:09:04,VALID,1001.77,VALID,0,VALID,96.4367,VALID,0.100563,VALID,23.5673,VALID,352,VALID,0.510938,
2008-04-15, 03:10:04,VALID,1001.75,VALID,0,VALID,96.4596,VALID,0,VALID,23.5673,VALID,352,VALID,0.545313,
2008-04-15, 03:11:04,VALID,1001.75,VALID,0,VALID,96.4367,VALID,0.100563,VALID,23.5885,VALID,352,VALID,0.521094,
2008-04-15, 03:12:04,VALID,1001.7,VALID,0,VALID,96.4214,VALID,0.100563,VALID,23.5885,VALID,353,VALID,0.632031,
2008-04-15, 03:13:04,VALID,1001.71,VALID,0,VALID,96.429,VALID,0.100563,VALID,23.5673,VALID,354,VALID,0.535547,
2008-04-15, 03:14:04,VALID,1001.72,VALID,0,VALID,96.429,VALID,0.100563,VALID,23.5673,VALID,351,VALID,0.637109,
2008-04-15, 03:15:04,VALID,1001.71,VALID,0,VALID,96.4596,VALID,0.100563,VALID,23.608,VALID,354,VALID,0.613281,
2008-04-15, 03:16:04,VALID,1001.7,VALID,0,VALID,96.4596,VALID,0.100563,VALID,23.608,VALID,357,VALID,0.519141,
2008-04-15, 03:17:04,VALID,1001.66,VALID,0,VALID,96.4748,VALID,0.100563,VALID,23.6062,VALID,347,VALID,0.665625,
2008-04-15, 03:18:04,VALID,1001.67,VALID,0,VALID,96.5053,VALID,0.100563,VALID,23.6452,VALID,349,VALID,0.851953,
2008-04-15, 03:19:04,VALID,1001.68,VALID,0,VALID,96.4977,VALID,0,VALID,23.6859,VALID,353,VALID,0.848437,
2008-04-15, 03:20:04,VALID,1001.65,VALID,0,VALID,96.4367,VALID,0.100563,VALID,23.7443,VALID,349,VALID,0.840234,
2008-04-15, 03:21:04,VALID,1001.65,VALID,0,VALID,96.368,VALID,0,VALID,23.7637,VALID,349,VALID,0.699609,
2008-04-15, 03:22:04,VALID,1001.64,VALID,0,VALID,96.2765,VALID,0,VALID,23.7832,VALID,352,VALID,0.7625,
2008-04-15, 03:23:04,VALID,1001.64,VALID,0,VALID,96.1849,VALID,0,VALID,23.8027,VALID,353,VALID,0.84375,
2008-04-15, 03:24:04,VALID,1001.65,VALID,0,VALID,96.1163,VALID,0,VALID,23.8416,VALID,355,VALID,0.289063,
2008-04-15, 03:25:04,VALID,1001.64,VALID,0,VALID,96.0171,VALID,0,VALID,23.8611,VALID,356,VALID,0.117188,
2008-04-15, 03:26:04,VALID,1001.65,VALID,0,VALID,95.9637,VALID,0,VALID,23.8805,VALID,356,VALID,0.301953,
2008-04-15, 03:27:04,VALID,1001.63,VALID,0,VALID,95.8874,VALID,0,VALID,23.8805,VALID,353,VALID,0.0195313,
2008-04-15, 03:28:04,VALID,1001.66,VALID,0,VALID,95.834,VALID,0.100563,VALID,23.8805,VALID,353,VALID,0.319141,
2008-04-15, 03:29:04,VALID,1001.64,VALID,0,VALID,95.7653,VALID,0.100563,VALID,23.8593,VALID,353,VALID,0.0953125,
2008-04-15, 03:30:04,VALID,1001.64,VALID,0,VALID,95.7119,VALID,0.100563,VALID,23.8611,VALID,353,VALID,0.00976563,
2008-04-15, 03:31:04,VALID,1001.62,VALID,0,VALID,95.689,VALID,0.100563,VALID,23.8398,VALID,353,VALID,0,
2008-04-15, 03:32:04,VALID,1001.63,VALID,0,VALID,95.6738,VALID,0.100563,VALID,23.8805,VALID,353,VALID,0.249609,
2008-04-15, 03:33:04,VALID,1001.64,VALID,0,VALID,95.6128,VALID,0.100563,VALID,23.8398,VALID,353,VALID,0.0171875,
2008-04-15, 03:34:04,VALID,1001.63,VALID,0,VALID,95.5899,VALID,0.100563,VALID,23.8398,VALID,353,VALID,0,
2008-04-15, 03:35:04,VALID,1001.62,VALID,0,VALID,95.5975,VALID,0.100563,VALID,23.8203,VALID,299,VALID,0.284766,
2008-04-15, 03:36:04,VALID,1001.6,VALID,0,VALID,95.5288,VALID,0.100563,VALID,23.8398,VALID,288,VALID,0.7625,
2008-04-15, 03:37:04,VALID,1001.59,VALID,0,VALID,95.4602,VALID,0.100563,VALID,23.8805,VALID,284,VALID,0.597266,
2008-04-15, 03:38:04,VALID,1001.61,VALID,0,VALID,95.3305,VALID,0,VALID,23.8805,VALID,289,VALID,0.804688,
2008-04-15, 03:39:04,VALID,1001.59,VALID,0,VALID,95.1855,VALID,0,VALID,23.9,VALID,287,VALID,0.670313,
2008-04-15, 03:40:04,VALID,1001.59,VALID,0,VALID,95.0482,VALID,0,VALID,23.9195,VALID,288,VALID,0.417578,
2008-04-15, 03:41:04,VALID,1001.63,VALID,0,VALID,94.9719,VALID,0.100563,VALID,23.9389,VALID,288,VALID,0.0867188,
2008-04-15, 03:42:04,VALID,1001.62,VALID,0,VALID,94.8499,VALID,0,VALID,23.9389,VALID,288,VALID,0.0507813,